Location: ????????
(55.7555°N, 38.7487°E)
Time: 17:55:14
(UTC+00:00)

Daily predictions for brighter satellites

Satellite Brightness Start Highest point End
(mag) Time Altitude Azimuth Time Altitude Azimuth Time Altitude Azimuth
Cosmos 1954 Rocket 4.2 19:02:43 10° NNW 19:08:01 72° WSW 19:13:15 10° SSE
Cosmos 1975 Rocket 3.3 19:06:19 10° SSW 19:10:48 80° WNW 19:15:16 10° N
Cosmos 1850 Rocket 4.4 19:07:29 10° NNW 19:12:41 58° ENE 19:17:48 10° SE
Helios 1A Rocket 3.9 19:09:24 10° S 19:13:17 43° W 19:17:13 10° NNW
Resurs 01 Rocket 4.2 19:15:39 10° WSW 19:18:16 15° W 19:20:54 10° NW
USA 267 3.5 19:13:56 10° ENE 19:20:12 46° SE 19:26:27 10° SW
Cosmos 2228 3.4 19:19:00 10° N 19:23:11 54° ENE 19:27:20 10° SSE
Lacrosse 4 Rocket 2.3 19:19:38 10° WSW 19:23:41 53° NW 19:27:41 10° NE
Cosmos 1544 Rocket 4.0 19:21:01 10° NNW 19:25:16 58° W 19:29:31 10° S
Cosmos 1980 Rocket 3.4 19:22:50 10° NNW 19:28:12 39° NE 19:33:30 10° ESE
NOSS 2-1 (C) 4.1 19:24:54 10° WNW 19:28:59 55° SW 19:34:38 10° SSE
Terra 2.6 19:25:16 10° S 19:29:53 49° W 19:34:32 10° NNW
Cosmos 2315 Rocket 4.4 19:24:41 10° SSW 19:31:02 71° WNW 19:37:21 10° N
SL-8 R/B 4.3 19:27:35 10° WSW 19:31:57 34° S 19:36:18 10° ESE
Cosmos 1703 3.9 19:28:42 10° SSE 19:32:19 40° E 19:35:58 10° NNE
Meteor 1-24 Rocket 3.8 19:27:08 10° SSW 19:32:27 79° WNW 19:37:53 10° NNE
Cosmos 1697 Rocket 3.1 19:27:21 10° NNW 19:32:57 60° NE 19:38:31 10° SE
Cosmos 1726 Rocket 4.4 19:31:05 10° N 19:35:11 40° ENE 19:39:15 10° SE
Cosmos 1455 3.0 19:31:48 10° NNW 19:35:27 45° W 19:39:05 10° SSW
FALCON 9 DEB 3.7 19:32:58 10° SW 19:35:55 31° SSE 19:38:53 10° E
ALOS 2 4.0 19:32:43 10° ESE 19:36:32 30° ENE 19:40:23 10° N
NOSS 2-1 (D) 4.3 19:35:15 10° WNW 19:39:21 49° SW 19:44:59 10° SSE
ADEOS Rocket 4.2 19:32:48 10° SE 19:39:29 46° ENE 19:46:41 10° NNW
Cosmos 1371 Rocket 4.0 19:35:07 10° SSW 19:40:22 87° ESE 19:45:42 10° NNE
Cosmos 1452 Rocket 4.3 19:37:15 10° S 19:42:00 36° ESE 19:46:46 10° NE
RESURS DK-1 2.5 19:38:56 10° NW 19:43:06 72° NE 19:47:13 10° SE
Meteor 2-1 Rocket 4.3 19:41:17 10° NNW 19:46:50 71° ENE 19:52:15 10° SSE
ASTEX 1 3.8 19:42:54 10° NNE 19:47:47 50° E 19:52:36 10° SSE
Cosmos 2074 Rocket 4.2 19:44:22 10° NNW 19:50:40 71° W 19:56:53 10° S
Spot 4 4.2 19:46:17 10° SE 19:50:57 58° ENE 19:55:41 10° N
ATLAS 2AS CENTAUR R/B 3.3 19:44:18 10° NW 19:51:08 47° SW 19:57:27 10° SSE
ARIANE 5 R/B 3.7 19:47:01 10° SSW 19:51:14 39° W 19:55:27 10° NNW
Lacrosse 5 rocket 2.7 19:50:07 10° W 19:53:15 23° SW 19:56:17 11° S
Cosmos 2084 Rocket 4.0 19:50:36 10° NW 19:54:21 51° NNE 19:58:13 10° ESE
Cosmos 2360 4.4 19:49:21 10° NNW 19:55:08 77° NE 20:00:53 10° SE
Cosmos 2084 3.7 19:52:32 10° SSW 19:56:05 37° SE 19:59:42 10° ENE
Cosmos 2322 Rocket 4.4 19:52:08 10° NNW 19:56:41 24° NNE 20:01:13 10° ENE
Cosmos 2344 4.2 19:48:26 10° NW 19:56:46 88° SW 20:08:14 10° SE
USA 234 3.8 19:51:38 10° SSE 19:57:47 42° SW 20:03:57 10° WNW
Cosmos 2058 Rocket 3.9 19:53:53 10° N 19:58:03 41° ENE 20:02:12 10° SE
Cosmos 1656 3.9 19:54:59 10° NW 20:00:20 58° WSW 20:05:29 11° SSE
Cosmos 1624 Rocket 4.3 19:56:59 10° SW 20:02:14 73° WNW 20:07:28 10° NNE
GP-B 3.4 19:59:51 10° N 20:04:14 55° E 20:08:14 12° SSE
Cosmos 1833 Rocket 3.6 20:02:58 11° SSE 20:07:41 32° ESE 20:12:38 10° NE
Cosmos 2154 Rocket 4.2 20:03:40 10° NNW 20:09:55 72° W 20:16:05 10° S
Cosmos 1892 Rocket 4.4 20:08:05 12° SSE 20:11:49 38° E 20:15:55 10° NNE
Nadezhda 1 Rocket 4.0 20:10:20 10° S 20:16:27 82° E 20:22:33 10° NNE
Cosmos 2082 Rocket 3.8 20:17:54 10° SE 20:21:49 20° E 20:25:53 10° NE
Cosmos 1741 Rocket 4.5 20:16:49 10° NW 20:21:59 53° WSW 20:26:43 12° S
Cosmos 2056 Rocket 4.3 20:16:43 10° SW 20:22:02 57° NW 20:27:24 10° NNE
Cosmos 1607 4.0 20:29:45 10° SW 20:36:00 86° NW 20:42:14 10° NE
Cosmos 1869 4.0 20:32:59 10° N 20:36:42 43° ENE 20:40:03 12° SE
Cosmos 2360 Rocket 4.2 20:34:34 10° NNW 20:39:23 27° NNE 20:44:12 10° E
Cosmos 968 Rocket 3.5 20:38:35 10° NNW 20:43:47 89° WSW 20:48:31 13° SSE
Lacrosse 5 3.3 20:41:43 10° W 20:45:39 22° SW 20:48:45 13° S
Cosmos 1606 Rocket 4.4 20:42:28 10° NNW 20:46:32 40° W 20:50:19 11° SSW
H-2A R/B 3.7 20:43:15 10° NNE 20:47:25 59° ESE 20:50:52 15° S
COSMOS 2406 3.9 20:42:59 13° S 20:47:35 39° ESE 20:52:53 10° NE
SL-8 Rocket 4.1 20:43:01 10° NNW 20:49:20 86° W 20:54:53 14° S
Cosmos 724 4.2 20:44:42 10° SW 20:50:31 82° SE 20:56:21 10° NE
Cosmos 2218 Rocket 4.1 20:46:20 10° NNW 20:52:47 88° E 20:58:31 13° S
Meteor 1-11 4.3 20:48:17 13° S 20:53:17 69° E 20:58:52 10° NNE
Cosmos 2369 3.8 20:48:24 10° NW 20:54:08 74° WSW 20:59:20 13° SSE
Cosmos 2341 Rocket 4.2 20:48:12 10° NNW 20:54:33 70° W 21:00:11 13° S
TSX-5 4.5 20:51:49 10° SW 20:56:23 85° SE 21:02:25 10° NE
Cosmos 1486 Rocket 4.4 20:51:36 10° NNW 20:56:48 63° ENE 21:01:58 10° SE
Cosmos 1633 4.3 20:57:00 11° SE 20:59:29 21° E 21:02:09 10° NE
SL-16 R/B 3.2 20:54:11 10° NNW 20:59:41 47° NE 21:05:09 10° ESE
SJ 16-02 3.1 20:56:48 10° NNW 21:00:42 29° NE 21:04:35 10° ESE
Cosmos 2366 rocket 4.1 20:56:12 10° NNW 21:02:31 83° W 21:08:07 14° S
Lacrosse 4 Rocket 4.4 21:00:09 10° WNW 21:03:08 19° NNW 21:06:07 10° NNE
USA 267 3.3 20:57:06 10° ENE 21:03:42 85° SSE 21:10:17 10° WSW
Cosmos 1328 4.5 21:01:45 10° SSW 21:05:39 52° WNW 21:09:37 10° N
Cosmos 1867 3.6 21:03:59 10° NW 21:09:30 81° SW 21:14:57 10° SE
FALCON 9 DEB 3.1 21:08:40 10° WSW 21:11:53 52° S 21:15:05 10° ESE
Cosmos 1408 2.5 21:09:35 15° SSW 21:12:21 77° WNW 21:15:49 10° N
Cosmos 1980 Rocket 2.4 21:06:54 10° NW 21:12:34 63° WSW 21:17:30 14° SSE
ALOS 2 3.2 21:09:14 14° S 21:12:44 46° W 21:17:00 10° NNW
Cosmos 1606 3.9 21:09:27 10° N 21:13:00 35° ENE 21:16:33 10° SE
Cosmos 1825 2.4 21:12:17 16° S 21:15:03 56° E 21:18:45 10° NNE
Cosmos 1697 Rocket 3.6 21:11:39 10° NW 21:16:43 35° WSW 21:20:59 14° SSW
RESURS DK-1 4.1 21:17:38 10° WNW 21:20:39 20° WSW 21:23:13 12° SSW
Cosmos 2219 Rocket 4.4 21:17:44 10° NNW 21:22:30 27° NNE 21:27:15 10° E
Cosmos 1331 Rocket 4.2 21:17:34 10° SSW 21:22:53 77° WNW 21:28:14 10° NNE
Cosmos 1812 Rocket 3.7 21:18:26 10° N 21:22:57 76° ENE 21:26:45 14° SSE
Cosmos 1452 Rocket 4.3 21:18:51 10° SW 21:23:59 51° NW 21:29:09 10° NNE
ADEOS Rocket 3.8 21:18:38 13° S 21:24:49 57° W 21:32:20 10° NNW
Cosmos 2333 Rocket 4.0 21:25:30 10° NNW 21:30:42 33° NE 21:35:55 10° E
In-Cosmos 22 Rocket 4.2 21:26:35 14° SSW 21:31:34 89° ESE 21:37:07 10° NNE
ERS-2 2.0 21:28:38 10° NNE 21:32:15 87° ESE 21:35:04 16° SSW
Cosmos 1503 Rocket 4.3 21:27:31 10° NNW 21:32:54 73° ENE 21:38:11 10° SE
Cosmos 2084 Rocket 3.8 21:30:04 10° WNW 21:33:43 40° SW 21:36:46 15° SSE
Aureole 1 Rocket 4.3 21:28:41 10° NNW 21:34:55 86° WSW 21:42:42 10° SSE
Cosmos 1892 3.1 21:31:44 13° SSW 21:34:55 54° WNW 21:38:38 10° N
Cosmos 2084 4.0 21:31:38 10° WSW 21:35:25 53° NNW 21:39:19 10° NE
Cosmos 2058 4.4 21:32:09 10° SE 21:35:37 27° E 21:39:11 10° NNE
Cosmos 2058 Rocket 4.4 21:32:06 10° NNW 21:35:56 30° W 21:39:28 12° SSW
Cosmos 2221 4.3 21:32:13 10° N 21:35:57 28° ENE 21:39:41 10° SE
Cosmos 2181 Rocket 4.1 21:30:29 13° SSW 21:36:06 76° WNW 21:42:21 10° N
USA 276 3.1 21:38:55 17° SSW 21:40:16 23° S 21:42:39 10° ESE
Cosmos 2278 3.8 21:34:45 10° NW 21:40:26 64° WSW 21:45:39 12° SSE
Cosmos 1602 Rocket 3.7 21:38:17 16° S 21:41:44 68° E 21:46:02 10° NNE
Cosmos 2322 Rocket 2.7 21:36:12 10° NNW 21:41:51 62° NE 21:47:29 10° SE
Cosmos 1934 Rocket 4.3 21:38:10 10° N 21:44:12 60° ENE 21:50:12 10° SSE
Cosmos 1302 Rocket 4.0 21:40:58 12° SSW 21:45:48 90° SE 21:51:02 10° NNE
Cosmos 192 4.4 21:42:59 11° SSW 21:47:38 81° WNW 21:52:35 10° NNE
Cosmos 1833 Rocket 3.1 21:45:45 10° SW 21:51:19 64° NW 21:56:57 10° NNE
CZ-2D R/B 4.1 21:48:35 10° NE 21:52:08 18° E 21:55:39 10° SE
SL-19 R/B 4.1 21:50:10 15° SSE 21:52:57 82° WSW 21:56:55 10° NNW
Cosmos 1777 Rocket 4.5 21:48:40 10° NNW 21:53:58 63° ENE 21:59:13 10° SE
CRYOSAT 2 4.4 21:49:52 14° S 21:54:10 84° E 21:59:06 10° N
Geosat 4.2 21:55:47 12° SSE 22:00:21 55° WSW 22:05:19 10° NW
Cosmos 1821 Rocket 4.2 21:54:32 10° NNW 22:00:48 66° W 22:06:18 13° S
Cosmos 2082 Rocket 2.2 21:59:43 11° SSW 22:05:09 85° ESE 22:10:55 10° NE
MOZ.5/SAFIR/RUBIN 5/SL-8 4.1 22:01:10 10° SSE 22:05:54 67° ENE 22:10:38 10° NNW
Okean 1-7 Rocket 4.3 22:02:23 12° SW 22:06:22 48° WNW 22:10:44 10° N
Cosmos 2237 4.3 22:01:46 10° NW 22:07:34 84° NE 22:13:18 10° SE
Cosmos 1626 Rocket 4.1 22:04:58 12° SSW 22:08:45 51° WNW 22:13:01 10° N
Cosmos 1238 4.1 22:09:26 17° S 22:11:40 82° E 22:14:46 10° NNE
ATLAS 5 CENTAUR R/B 2.8 22:09:38 13° SSE 22:12:04 23° ESE 22:15:26 10° ENE
Resurs 1-4 Rocket 3.7 22:09:48 10° NE 22:14:18 27° E 22:18:46 10° SSE
Cosmos 1605 Rocket 4.4 22:09:34 10° N 22:15:58 66° ENE 22:22:20 10° SSE
Cosmos-2242 3.6 22:13:15 10° NNW 22:17:19 44° W 22:20:41 14° SSW
PSLV R/B 4.1 22:12:38 10° N 22:17:21 62° WNW 22:21:43 12° SSW
Nadezhda 3 Rocket 4.0 22:12:40 13° SSW 22:18:14 86° WNW 22:24:26 10° N
COSMOS 2428 4.4 22:13:46 10° NNW 22:19:01 36° NE 22:24:17 10° ESE
Cosmos 1825 Rocket 3.6 22:16:49 14° S 22:20:30 73° E 22:24:51 10° NNE
Cosmos 2360 Rocket 2.4 22:18:34 10° NNW 22:24:18 77° NE 22:29:59 10° SE
Cosmos 1842 Rocket 4.1 22:25:24 10° N 22:29:52 61° ENE 22:34:18 10° SSE
COSMOS 2406 3.8 22:26:05 10° SW 22:31:46 57° NW 22:37:28 10° NNE
Cosmos 1633 3.4 22:30:47 12° SW 22:33:45 40° WNW 22:37:05 10° N
Cosmos 1812 4.3 22:33:28 10° N 22:36:57 32° ENE 22:40:24 10° SE
SJ 16-02 1.6 22:35:12 10° NNW 22:39:32 54° WSW 22:43:51 10° S
SL-16 R/B 2.6 22:38:26 10° NW 22:43:52 48° WSW 22:49:17 10° S
Cosmos 1340 Rocket 2.9 22:41:29 12° S 22:45:01 69° ESE 22:48:58 10° NNE
Cosmos 972 Rocket 3.9 22:40:36 10° NNW 22:45:33 79° WSW 22:50:48 10° SSE
USA 267 3.4 22:40:13 10° E 22:46:47 81° N 22:53:21 10° W
SL-16 R/B 2.8 22:40:43 10° SSE 22:46:57 75° ENE 22:53:15 10° NNW
FALCON 9 DEB 3.5 22:44:50 10° W 22:47:52 36° SSW 22:50:55 10° SE
Cosmos 1606 4.0 22:45:12 10° NNW 22:48:30 28° W 22:51:30 12° SSW
Cosmos 1825 4.3 22:48:01 10° WSW 22:50:45 19° WNW 22:53:29 10° NNW
Cosmos 1980 Rocket 4.1 22:52:38 10° WNW 22:55:28 14° W 22:58:19 10° SW
MOS 1 Rocket 3.7 22:51:32 10° SSE 22:56:28 76° ENE 23:01:44 10° NNW
Meteor 2-3 Rocket 4.4 22:51:11 10° SSE 22:56:35 49° E 23:01:57 10° NNE
ADEOS II 3.3 22:58:49 10° NNE 23:03:40 36° E 23:08:28 10° SSE
Cosmos 1782 3.0 23:00:16 10° N 23:04:17 73° ENE 23:08:16 10° SSE
Cosmos 2219 Rocket 2.5 23:01:40 10° NNW 23:07:22 75° NE 23:13:03 10° SE
COSMOS 2455 4.4 23:03:05 10° NW 23:08:48 42° NNE 23:14:29 10° E
Cosmos 2058 3.7 23:08:18 10° SW 23:12:19 43° WNW 23:16:21 10° N
Cosmos 2221 3.0 23:09:32 10° NNW 23:13:40 45° W 23:17:49 10° SSW
USA 276 3.0 23:12:35 10° WSW 23:15:02 24° S 23:17:27 10° SE
Cosmos 2333 Rocket 2.3 23:09:48 10° NW 23:15:36 80° WSW 23:21:22 10° SSE
CZ-4 R/B 4.1 23:14:28 10° NNE 23:19:16 70° ESE 23:24:08 10° S
Meteor 1-28 Rocket 3.4 23:18:45 10° SSE 23:22:25 74° ENE 23:26:08 10° NNW
Cosmos 1340 4.4 23:20:38 10° N 23:24:02 32° ENE 23:27:25 10° SE
Aureole 3 4.3 23:19:49 10° NNW 23:24:56 87° E 23:31:22 10° SSE
Cosmos 1933 3.5 23:21:32 10° NNW 23:25:30 58° W 23:29:25 10° S
Cosmos 2322 Rocket 3.0 23:20:36 10° NW 23:25:39 34° WSW 23:30:42 10° S
Helios 1A 3.4 23:23:16 10° SSE 23:27:27 68° ENE 23:31:38 10° NNW
Cosmos 990 Rocket 4.0 23:24:39 10° NNW 23:29:50 81° WSW 23:34:58 10° SSE
Cosmos 1727 Rocket 4.2 23:24:38 10° S 23:30:59 81° E 23:37:20 10° NNE
AQUA 4.2 23:27:03 10° NNE 23:31:48 63° ESE 23:36:32 10° S
CZ-2D R/B 2.1 23:27:41 10° NNE 23:32:57 88° ESE 23:38:10 10° SSW
UNK 4.0 23:34:58 10° S 23:39:35 57° W 23:44:13 10° NNW
Cosmos 1898 Rocket 3.5 23:38:15 10° NNW 23:43:29 89° WSW 23:48:40 10° SSE
Cosmos 2151 3.0 23:39:16 10° S 23:43:33 90° ENE 23:47:53 10° NNE
Cosmos 2100 Rocket 4.1 23:40:23 10° NNW 23:46:47 78° W 23:53:09 10° S
IDEFIX/ARIANE 42P 3.0 23:42:01 10° NNE 23:47:15 64° ESE 23:52:25 10° S
